�������l�o���
Date,Time,MP-1(��Sv/h),MP-2(��Sv/h),MP-3(��Sv/h),MP-4(��Sv/h),MP-5(��Sv/h),MP-6(��Sv/h),MP-7(��Sv/h),MP-8(��Sv/h),����,����(m/s),���J
2020/06/25,00:00,0.672,0.954,0.619,1.178,0.841,0.389,0.677,0.638,�k,2.3,�L
2020/06/25,00:10,0.673,0.955,0.622,1.176,0.846,0.390,0.678,0.636,�k�k��,3.1,�L
2020/06/25,00:20,0.673,0.955,0.620,1.178,0.845,0.389,0.677,0.635,�k�k��,2.6,�L
2020/06/25,00:30,0.675,0.955,0.619,1.177,0.846,0.390,0.676,0.635,�k�k��,2.9,�L
2020/06/25,00:40,0.673,0.953,0.619,1.177,0.842,0.390,0.677,0.636,�k�k��,2.8,�L
2020/06/25,00:50,0.671,0.952,0.621,1.178,0.843,0.389,0.676,0.634,�k�k��,2.6,�L
2020/06/25,01:00,0.672,0.954,0.619,1.176,0.843,0.389,0.676,0.633,�k�k��,2.9,�L
2020/06/25,01:10,0.673,0.955,0.621,1.173,0.845,0.388,0.677,0.634,�k��,3.1,�L
2020/06/25,01:20,0.673,0.954,0.620,1.177,0.846,0.389,0.677,0.636,�k�k��,2.2,�L
2020/06/25,01:30,0.671,0.952,0.618,1.175,0.843,0.388,0.678,0.636,�k�k��,2.0,�L
2020/06/25,01:40,0.674,0.956,0.618,1.178,0.843,0.389,0.678,0.636,�k�k��,2.3,�L
2020/06/25,01:50,0.672,0.952,0.619,1.175,0.842,0.388,0.679,0.635,�k�k��,2.3,�L
2020/06/25,02:00,0.673,0.952,0.618,1.174,0.843,0.390,0.678,0.636,�k�k��,2.3,�L
2020/06/25,02:10,0.672,0.954,0.620,1.175,0.843,0.389,0.679,0.634,�k�k��,2.2,�L
2020/06/25,02:20,0.674,0.955,0.619,1.175,0.842,0.390,0.678,0.637,�k�k��,2.5,�L
2020/06/25,02:30,0.672,0.954,0.619,1.174,0.843,0.389,0.679,0.636,�k�k��,2.6,�L
2020/06/25,02:40,0.674,0.953,0.618,1.176,0.844,0.389,0.678,0.636,�k�k��,2.0,�L
2020/06/25,02:50,0.671,0.953,0.619,1.177,0.842,0.390,0.678,0.634,�k�k��,1.9,�L
2020/06/25,03:00,0.672,0.954,0.618,1.174,0.842,0.391,0.677,0.633,�k��,2.0,�L
2020/06/25,03:10,0.673,0.952,0.618,1.175,0.842,0.388,0.678,0.635,�k�k��,2.3,�L
2020/06/25,03:20,0.673,0.952,0.619,1.175,0.840,0.390,0.675,0.636,�k��,2.0,�L
2020/06/25,03:30,0.670,0.952,0.617,1.174,0.842,0.390,0.679,0.634,�k��,2.3,�L
2020/06/25,03:40,0.672,0.951,0.618,1.174,0.842,0.390,0.677,0.635,�k��,1.7,�L
2020/06/25,03:50,0.673,0.951,0.618,1.174,0.839,0.388,0.676,0.636,�k��,1.4,�L
2020/06/25,04:00,0.671,0.951,0.619,1.174,0.840,0.388,0.677,0.634,���k��,1.5,�L
2020/06/25,04:10,0.671,0.952,0.618,1.173,0.842,0.388,0.676,0.634,���k��,2.0,�L
2020/06/25,04:20,0.672,0.951,0.618,1.173,0.841,0.390,0.677,0.635,�k��,2.0,��
2020/06/25,04:30,0.671,0.949,0.619,1.174,0.840,0.389,0.677,0.635,�k��,2.0,��
2020/06/25,04:40,0.671,0.951,0.617,1.173,0.840,0.389,0.678,0.635,���k��,1.9,��
2020/06/25,04:50,0.671,0.952,0.618,1.174,0.841,0.389,0.678,0.635,���k��,2.0,��
2020/06/25,05:00,0.673,0.950,0.620,1.175,0.841,0.391,0.680,0.637,�k�k��,1.1,��
2020/06/25,05:10,0.671,0.951,0.618,1.174,0.841,0.389,0.678,0.635,�k��,1.5,��
2020/06/25,05:20,0.671,0.950,0.618,1.174,0.843,0.388,0.676,0.635,�k��,1.5,��
2020/06/25,05:30,0.671,0.951,0.618,1.174,0.842,0.390,0.678,0.634,���k��,1.5,��
2020/06/25,05:40,0.672,0.948,0.619,1.174,0.843,0.388,0.678,0.636,�k��,1.7,��
2020/06/25,05:50,0.674,0.953,0.618,1.173,0.842,0.388,0.676,0.635,�k�k��,1.5,��
2020/06/25,06:00,0.672,0.951,0.619,1.171,0.840,0.389,0.677,0.636,���k��,1.5,��
2020/06/25,06:10,0.674,0.952,0.618,1.176,0.840,0.389,0.675,0.633,�k��,1.4,�L
2020/06/25,06:20,0.671,0.951,0.618,1.173,0.838,0.389,0.674,0.632,�k�k��,1.7,�L
2020/06/25,06:30,0.671,0.952,0.617,1.170,0.841,0.390,0.674,0.634,�k�k��,1.9,�L
2020/06/25,06:40,0.672,0.948,0.617,1.172,0.841,0.388,0.675,0.632,�k�k��,1.5,�L
2020/06/25,06:50,0.670,0.949,0.617,1.170,0.839,0.389,0.674,0.632,��,1.6,�L
2020/06/25,07:00,0.669,0.950,0.617,1.171,0.836,0.388,0.676,0.631,�k,1.5,�L
2020/06/25,07:10,0.669,0.949,0.617,1.170,0.838,0.390,0.674,0.631,�k�k��,1.2,�L
2020/06/25,07:20,0.670,0.950,0.616,1.169,0.837,0.389,0.676,0.631,�k�k��,1.4,�L
2020/06/25,07:30,0.670,0.948,0.618,1.171,0.838,0.389,0.674,0.631,�k�k��,1.2,�L
2020/06/25,07:40,0.668,0.950,0.616,1.168,0.839,0.389,0.673,0.633,�k��,0.8,�L
2020/06/25,07:50,0.669,0.950,0.616,1.170,0.839,0.390,0.675,0.633,�k�k��,1.2,�L
2020/06/25,08:00,0.669,0.947,0.617,1.169,0.839,0.389,0.675,0.633,�k,1.1,�L
2020/06/25,08:10,0.669,0.946,0.616,1.168,0.838,0.390,0.674,0.633,�k�k��,1.2,�L
2020/06/25,08:20,0.669,0.944,0.619,1.168,0.837,0.390,0.675,0.632,���k��,0.8,�L
2020/06/25,08:30,0.667,0.945,0.615,1.167,0.838,0.389,0.673,0.632,�k,1.2,�L
2020/06/25,08:40,0.670,0.943,0.618,1.166,0.837,0.388,0.676,0.633,�k�k��,1.2,�L
2020/06/25,08:50,0.668,0.944,0.617,1.170,0.838,0.388,0.674,0.632,�k�k��,1.4,�L
2020/06/25,09:00,0.669,0.944,0.614,1.171,0.839,0.389,0.675,0.633,�k��,1.2,��
2020/06/25,09:10,0.668,0.943,0.616,1.168,0.839,0.388,0.674,0.633,�k�k��,1.7,��
2020/06/25,09:20,0.670,0.940,0.617,1.169,0.837,0.389,0.677,0.635,�k�k��,1.7,��
2020/06/25,09:30,0.668,0.944,0.614,1.169,0.836,0.387,0.676,0.634,�k��,1.2,��
2020/06/25,09:40,0.668,0.943,0.614,1.169,0.835,0.386,0.675,0.635,�k��,1.5,�L
2020/06/25,09:50,0.668,0.941,0.615,1.169,0.838,0.386,0.676,0.632,�k��,1.7,��
2020/06/25,10:00,0.668,0.940,0.614,1.171,0.837,0.387,0.675,0.634,�k��,2.3,��
2020/06/25,10:10,0.668,0.941,0.614,1.170,0.836,0.388,0.677,0.633,�k�k��,2.3,��
2020/06/25,10:20,0.670,0.939,0.614,1.169,0.836,0.388,0.676,0.632,�k�k��,2.3,��
2020/06/25,10:30,0.669,0.943,0.615,1.168,0.836,0.388,0.676,0.634,�k,2.3,��
2020/06/25,10:40,0.670,0.943,0.615,1.170,0.838,0.389,0.677,0.633,�k�k��,2.3,�L
2020/06/25,10:50,0.672,0.947,0.616,1.167,0.837,0.388,0.676,0.633,�k�k��,2.5,�L
2020/06/25,11:00,0.671,0.943,0.616,1.171,0.839,0.388,0.678,0.633,�k�k��,2.8,�L
2020/06/25,11:10,0.671,0.946,0.615,1.171,0.839,0.389,0.678,0.633,�k�k��,2.8,�L
2020/06/25,11:20,0.671,0.943,0.617,1.172,0.837,0.389,0.676,0.633,�k�k��,2.8,�L
2020/06/25,11:30,0.670,0.945,0.616,1.168,0.836,0.388,0.677,0.632,�k�k��,3.4,�L
2020/06/25,11:40,0.671,0.945,0.615,1.168,0.837,0.389,0.679,0.631,�k�k��,3.2,�L
2020/06/25,11:50,0.668,0.945,0.615,1.173,0.837,0.389,0.677,0.633,�k,3.4,�L
2020/06/25,12:00,0.672,0.949,0.615,1.171,0.838,0.390,0.676,0.633,�k,4.4,�L
2020/06/25,12:10,0.670,0.948,0.615,1.170,0.838,0.390,0.678,0.633,�k,4.4,�L
2020/06/25,12:20,0.671,0.945,0.615,1.172,0.838,0.389,0.677,0.632,�k,3.2,�L
2020/06/25,12:30,0.670,0.949,0.614,1.173,0.838,0.389,0.678,0.633,�k,3.8,�L
2020/06/25,12:40,0.670,0.946,0.617,1.170,0.839,0.390,0.677,0.633,�k,3.5,�L
2020/06/25,12:50,0.669,0.948,0.617,1.170,0.838,0.390,0.679,0.633,�k,3.6,�L
2020/06/25,13:00,0.672,0.948,0.617,1.173,0.837,0.390,0.679,0.633,�k,3.7,�L
2020/06/25,13:10,0.671,0.948,0.619,1.173,0.840,0.390,0.679,0.633,�k,4.1,�L
2020/06/25,13:20,0.670,0.948,0.617,1.172,0.839,0.389,0.677,0.632,�k,4.5,�L
2020/06/25,13:30,0.669,0.945,0.617,1.170,0.839,0.391,0.678,0.633,�k,5.0,�L
2020/06/25,13:40,0.671,0.944,0.616,1.171,0.840,0.388,0.677,0.632,�k,4.4,�L
2020/06/25,13:50,0.670,0.945,0.614,1.173,0.838,0.389,0.677,0.633,�k,4.0,�L
2020/06/25,14:00,0.669,0.945,0.614,1.172,0.839,0.390,0.677,0.634,�k�k��,5.6,�L
2020/06/25,14:10,0.670,0.945,0.616,1.172,0.840,0.390,0.678,0.633,�k,4.5,�L
2020/06/25,14:20,0.671,0.948,0.614,1.171,0.837,0.390,0.680,0.633,�k,5.1,�L
2020/06/25,14:30,0.670,0.948,0.620,1.172,0.838,0.390,0.679,0.635,�k,5.6,�L
2020/06/25,14:40,0.670,0.947,0.618,1.171,0.838,0.389,0.678,0.634,�k,4.9,��
2020/06/25,14:50,0.670,0.948,0.618,1.172,0.836,0.389,0.680,0.634,�k,5.5,��
2020/06/25,15:00,0.670,0.948,0.615,1.173,0.838,0.390,0.678,0.633,�k,6.2,��
2020/06/25,15:10,0.672,0.947,0.616,1.173,0.839,0.389,0.679,0.632,�k,5.6,�L
2020/06/25,15:20,0.670,0.950,0.615,1.169,0.838,0.388,0.678,0.633,�k,6.3,�L
2020/06/25,15:30,0.672,0.948,0.616,1.172,0.839,0.389,0.675,0.634,�k,6.3,�L
2020/06/25,15:40,0.672,0.950,0.617,1.171,0.837,0.389,0.678,0.634,�k,6.2,�L
2020/06/25,15:50,0.671,0.950,0.615,1.175,0.838,0.388,0.680,0.635,�k,5.8,�L
2020/06/25,16:00,0.671,0.951,0.617,1.174,0.836,0.389,0.678,0.633,�k�k��,5.7,�L
2020/06/25,16:10,0.671,0.950,0.617,1.170,0.840,0.389,0.678,0.634,�k�k��,7.0,�L
2020/06/25,16:20,0.671,0.951,0.618,1.173,0.839,0.389,0.678,0.633,�k,6.1,�L
2020/06/25,16:30,0.671,0.954,0.617,1.171,0.840,0.389,0.676,0.635,�k,5.6,�L
2020/06/25,16:40,0.671,0.950,0.619,1.173,0.841,0.389,0.678,0.634,�k,6.1,�L
2020/06/25,16:50,0.670,0.952,0.618,1.173,0.844,0.389,0.678,0.635,�k�k��,5.5,�L
2020/06/25,17:00,0.671,0.952,0.619,1.173,0.841,0.390,0.677,0.634,�k�k��,6.2,�L
2020/06/25,17:10,0.670,0.952,0.618,1.174,0.842,0.389,0.678,0.635,�k�k��,6.0,�L
2020/06/25,17:20,0.671,0.950,0.618,1.171,0.842,0.389,0.677,0.636,�k,5.2,�L
2020/06/25,17:30,0.672,0.953,0.618,1.172,0.842,0.390,0.676,0.633,�k�k��,5.2,�L
2020/06/25,17:40,0.671,0.950,0.619,1.174,0.840,0.389,0.676,0.634,�k�k��,5.7,�L
2020/06/25,17:50,0.671,0.955,0.617,1.175,0.841,0.388,0.677,0.637,�k�k��,6.1,�L
2020/06/25,18:00,0.671,0.951,0.617,1.173,0.842,0.391,0.676,0.636,�k�k��,6.2,�L
2020/06/25,18:10,0.670,0.952,0.618,1.174,0.843,0.390,0.676,0.636,�k�k��,6.4,�L
2020/06/25,18:20,0.671,0.953,0.618,1.172,0.842,0.390,0.678,0.635,�k,6.0,�L
2020/06/25,18:30,0.671,0.951,0.619,1.173,0.843,0.388,0.677,0.635,�k,6.0,�L
2020/06/25,18:40,0.671,0.951,0.618,1.171,0.841,0.390,0.679,0.636,�k,4.7,�L
2020/06/25,18:50,0.671,0.953,0.616,1.172,0.842,0.390,0.676,0.636,�k,5.6,�L
2020/06/25,19:00,0.671,0.951,0.618,1.173,0.839,0.389,0.677,0.636,�k�k��,4.8,�L
2020/06/25,19:10,0.672,0.950,0.619,1.172,0.839,0.389,0.677,0.635,�k,5.1,�L
2020/06/25,19:20,0.673,0.951,0.617,1.175,0.840,0.389,0.677,0.637,�k,5.5,�L
2020/06/25,19:30,0.670,0.949,0.620,1.171,0.841,0.388,0.676,0.637,�k�k��,4.8,�L
2020/06/25,19:40,0.673,0.951,0.618,1.173,0.839,0.390,0.676,0.636,�k�k��,6.2,�L
2020/06/25,19:50,0.672,0.954,0.617,1.170,0.842,0.389,0.677,0.637,�k�k��,6.2,�L
2020/06/25,20:00,0.672,0.951,0.618,1.174,0.838,0.388,0.676,0.637,�k�k��,6.7,�L
2020/06/25,20:10,0.673,0.952,0.617,1.171,0.839,0.388,0.676,0.637,�k�k��,5.3,�L
2020/06/25,20:20,0.671,0.951,0.618,1.171,0.839,0.389,0.678,0.637,�k�k��,4.9,��
2020/06/25,20:30,0.669,0.949,0.618,1.172,0.840,0.390,0.677,0.636,�k�k��,5.1,��
2020/06/25,20:40,0.672,0.951,0.618,1.174,0.840,0.390,0.677,0.636,�k�k��,5.8,��
2020/06/25,20:50,0.673,0.952,0.617,1.171,0.839,0.388,0.676,0.636,�k�k��,4.7,��
2020/06/25,21:00,0.673,0.951,0.618,1.173,0.841,0.389,0.676,0.636,�k�k��,4.2,��
2020/06/25,21:10,0.672,0.952,0.617,1.173,0.841,0.389,0.676,0.637,�k,4.2,��
2020/06/25,21:20,0.670,0.951,0.616,1.172,0.839,0.390,0.676,0.636,�k�k��,5.5,��
2020/06/25,21:30,0.673,0.954,0.618,1.172,0.840,0.389,0.677,0.638,�k��,4.8,��
2020/06/25,21:40,0.673,0.952,0.618,1.172,0.842,0.389,0.677,0.637,�k�k��,5.6,��
2020/06/25,21:50,0.672,0.951,0.616,1.175,0.839,0.389,0.678,0.639,�k�k��,5.9,��
2020/06/25,22:00,0.671,0.952,0.618,1.172,0.840,0.389,0.676,0.637,�k�k��,5.9,��
2020/06/25,22:10,0.671,0.953,0.617,1.170,0.841,0.392,0.675,0.636,�k�k��,5.0,��
2020/06/25,22:20,0.672,0.954,0.617,1.172,0.841,0.388,0.677,0.638,�k��,5.9,��
2020/06/25,22:30,0.672,0.953,0.617,1.172,0.841,0.388,0.678,0.637,�k��,6.4,��
2020/06/25,22:40,0.673,0.952,0.617,1.172,0.838,0.389,0.675,0.636,�k�k��,6.6,��
2020/06/25,22:50,0.672,0.953,0.616,1.172,0.839,0.389,0.677,0.635,�k�k��,6.4,��
2020/06/25,23:00,0.670,0.952,0.617,1.172,0.839,0.389,0.677,0.639,�k�k��,6.6,�L
2020/06/25,23:10,0.673,0.952,0.618,1.172,0.841,0.389,0.676,0.637,�k�k��,6.9,�L
2020/06/25,23:20,0.671,0.950,0.618,1.173,0.841,0.389,0.678,0.638,�k�k��,6.3,�L
2020/06/25,23:30,0.672,0.953,0.618,1.174,0.841,0.390,0.677,0.636,�k�k��,6.1,�L
2020/06/25,23:40,0.673,0.950,0.618,1.171,0.840,0.390,0.677,0.637,�k�k��,6.5,�L
2020/06/25,23:50,0.672,0.952,0.618,1.172,0.840,0.391,0.676,0.636,�k�k��,5.8,�L
